Location: Unspecified
(48.8656°N, 0.0000°E)
Time: 17:10:33
(UTC+00:00)

Tiangong 2 - Pass Details

Date: 25 May 2019
Orbit: 376 x 388 km, 42.8° (Epoch: 16 June)

Event Time Altitude Azimuth Distance (km) Brightness Sun altitude
Rises 20:44:38 0° 256° (WSW) 2,238 5.4 -8.1°
Reaches altitude 10° 20:46:53 10° 243° (WSW) 1,385 4.1 -8.3°
Maximum altitude 20:49:33 26° 184° (S) 788 2.3 -8.6°
Enters shadow 20:51:43 13° 131° (SE) 1,219 2.9 -8.9°
